KK7KHO Weather Reports


time (UTC)temp
F
wind
direction
speed
knots
gust
knots
rain 1hr
in
rain 24hr
in
rain mn
in
humidity
%
barometer
mb
20260505035931 61 357 0.0 2.6 0.00 0.00 0.00 70 1009.3
20260505035427 61 297 0.9 2.6 0.00 0.00 0.00 69 1009.2
20260505034924 61 18 0.9 5.2 0.00 0.00 0.00 68 1009.2
20260505034420 62 14 2.6 3.5 0.00 0.00 0.00 68 1009.1
20260505033917 62 16 0.0 2.6 0.00 0.00 0.00 68 1009.2
20260505033414 62 20 0.9 1.7 0.00 0.00 0.00 68 1009.1
20260505032913 63 359 0.0 1.7 0.00 0.00 0.00 67 1009.1
20260505032409 63 32 0.0 3.5 0.00 0.00 0.00 67 1008.9
20260505031906 63 2 1.7 2.6 0.00 0.00 0.00 66 1009.0
20260505031403 64 353 1.7 2.6 0.00 0.00 0.00 66 1009.1
20260505030900 64 29 0.0 3.5 0.00 0.00 0.00 66 1008.9
20260505030355 64 16 0.0 1.7 0.00 0.00 0.00 66 1008.9
20260505025851 64 15 0.9 0.9 0.00 0.00 0.00 65 1008.7
20260505025349 65 5 1.7 1.7 0.00 0.00 0.00 65 1008.8
20260505024848 65 37 0.9 2.6 0.00 0.00 0.00 65 1008.8
20260505024345 65 10 0.0 2.6 0.00 0.00 0.00 64 1008.6
20260505023842 66 336 0.9 0.9 0.00 0.00 0.00 63 1008.7
20260505023338 66 359 0.0 2.6 0.00 0.00 0.00 62 1008.7
20260505022836 67 324 1.7 2.6 0.00 0.00 0.00 62 1008.5
20260505022333 68 354 3.5 5.2 0.00 0.00 0.00 61 1008.9
20260505021830 69 285 0.9 2.6 0.00 0.00 0.00 61 1008.8
20260505021327 70 309 0.9 2.6 0.00 0.00 0.00 58 1008.8
20260505020822 71 267 0.9 2.6 0.00 0.00 0.00 59 1008.6
20260505020318 71 88 0.0 1.7 0.00 0.00 0.00 59 1008.6
20260505015815 71 183 0.9 1.7 0.00 0.00 0.00 60 1008.6
20260505015312 72 206 3.5 3.5 0.00 0.00 0.00 58 1008.5
20260505014810 73 0 0.9 0.9 0.00 0.00 0.00 57 1008.5
20260505014307 72 358 1.7 2.6 0.00 0.00 0.00 56 1008.5
20260505013803 73 354 0.0 2.6 0.00 0.00 0.00 55 1008.6
20260505013300 73 289 0.0 3.5 0.00 0.00 0.00 54 1008.5
20260505012759 73 335 2.6 2.6 0.00 0.00 0.00 54 1008.4
20260505012256 74 350 0.0 3.5 0.00 0.00 0.00 53 1008.6
20260505011751 75 20 0.9 5.2 0.00 0.00 0.00 50 1008.6
20260505011248 76 344 0.0 0.9 0.00 0.00 0.00 48 1008.6
20260505010744 76 5 0.0 0.9 0.00 0.00 0.00 46 1008.6
20260505010240 76 288 0.9 2.6 0.00 0.00 0.00 49 1008.6
20260505005737 75 352 0.0 2.6 0.00 0.00 0.00 51 1008.5
20260505005234 75 0 1.7 2.6 0.00 0.00 0.00 49 1008.5
20260505004731 76 341 2.6 5.2 0.00 0.00 0.00 49 1008.2
20260505004228 77 256 0.9 2.6 0.00 0.00 0.00 49 1008.2
20260505003725 76 245 0.9 2.6 0.00 0.00 0.00 49 1008.4
20260505003223 76 347 0.9 2.6 0.00 0.00 0.00 49 1008.5
20260505002718 76 282 0.9 2.6 0.00 0.00 0.00 51 1008.4
20260505002216 77 13 2.6 2.6 0.00 0.00 0.00 49 1008.2
20260505001714 77 253 1.7 3.5 0.00 0.00 0.00 50 1008.4
20260505001211 78 277 1.7 2.6 0.00 0.00 0.00 49 1008.5
20260505000708 77 318 0.9 2.6 0.00 0.00 0.00 49 1008.4
20260505000206 79 14 0.9 1.7 0.00 0.00 0.00 48 1008.5
20260504235702 80 353 1.7 2.6 0.00 0.00 0.00 50 1008.5
20260504235158 80 358 0.0 0.9 0.00 0.00 0.00 52 1008.5
20260504234656 79 279 1.7 1.7 0.00 0.00 0.00 49 1008.5
20260504234153 79 11 0.9 2.6 0.00 0.00 0.00 46 1008.4
20260504233649 78 18 0.0 2.6 0.00 0.00 0.00 46 1008.7
20260504233144 79 30 0.9 3.5 0.00 0.00 0.00 46 1008.6
20260504232643 80 159 0.9 2.6 0.00 0.00 0.00 47 1008.5
20260504232139 80 7 1.7 2.6 0.00 0.00 0.00 46 1008.5
20260504231636 81 315 0.9 2.6 0.00 0.00 0.00 46 1008.4
20260504231127 80 355 0.0 1.7 0.00 0.00 0.00 48 1008.4
20260504230623 80 215 1.7 2.6 0.00 0.00 0.00 44 1008.4
20260504230122 80 263 0.9 1.7 0.00 0.00 0.00 46 1008.5
20260504225620 81 192 0.9 1.7 0.00 0.00 0.00 46 1008.5
20260504225116 81 21 0.0 1.7 0.00 0.00 0.00 46 1008.5
20260504224613 80 326 0.9 1.7 0.00 0.00 0.00 47 1008.7
20260504224110 79 41 0.0 1.7 0.00 0.00 0.00 46 1008.7
20260504223607 79 238 1.7 2.6 0.00 0.00 0.00 46 1008.7
20260504223102 81 233 1.7 1.7 0.00 0.00 0.00 45 1008.8
20260504222559 80 225 1.7 2.6 0.00 0.00 0.00 46 1008.8
20260504222056 80 356 0.0 2.6 0.00 0.00 0.00 48 1008.7
20260504221554 80 248 0.9 2.6 0.00 0.00 0.00 47 1008.8
20260504221050 79 252 0.9 1.7 0.00 0.00 0.00 47 1008.8
20260504220547 80 290 0.9 0.9 0.00 0.00 0.00 47 1009.0
20260504220044 79 53 0.0 3.5 0.00 0.00 0.00 45 1008.9
20260504215540 78 43 0.0 2.6 0.00 0.00 0.00 47 1008.9
20260504215038 79 183 1.7 2.6 0.00 0.00 0.00 46 1009.1
20260504214533 78 174 3.5 3.5 0.00 0.00 0.00 46 1009.1
20260504214030 79 283 2.6 2.6 0.00 0.00 0.00 46 1009.1
20260504213527 79 261 1.7 2.6 0.00 0.00 0.00 48 1009.2
20260504213024 79 310 0.9 2.6 0.00 0.00 0.00 48 1009.2
20260504212520 79 265 0.0 1.7 0.00 0.00 0.00 49 1009.2
20260504212017 79 6 0.0 1.7 0.00 0.00 0.00 51 1009.3
20260504211514 76 189 3.5 3.5 0.00 0.00 0.00 50 1009.3
20260504211012 77 48 0.9 2.6 0.00 0.00 0.00 50 1009.4
20260504210508 76 179 1.7 3.5 0.00 0.00 0.00 54 1009.5
20260504210005 78 109 1.7 2.6 0.00 0.00 0.00 51 1009.5
20260504205503 77 37 0.0 1.7 0.00 0.00 0.00 50 1009.4
20260504205001 77 250 0.9 0.9 0.00 0.00 0.00 52 1009.5
20260504204458 76 306 1.7 1.7 0.00 0.00 0.00 50 1009.5
20260504203957 75 158 0.9 1.7 0.00 0.00 0.00 54 1009.5
20260504203455 76 353 0.0 2.6 0.00 0.00 0.00 50 1009.5
20260504202951 75 192 1.7 1.7 0.00 0.00 0.00 51 1009.6
20260504202447 75 192 1.7 3.5 0.00 0.00 0.00 52 1009.6
20260504201944 75 187 1.7 3.5 0.00 0.00 0.00 53 1009.6
20260504201441 76 190 0.9 1.7 0.00 0.00 0.00 53 1009.7
20260504200939 76 163 1.7 2.6 0.00 0.00 0.00 51 1009.7
20260504200436 75 97 0.0 3.5 0.00 0.00 0.00 54 1009.8
20260504195932 74 199 1.7 2.6 0.00 0.00 0.00 52 1009.7
20260504195428 77 175 1.7 2.6 0.00 0.00 0.00 50 1009.8
20260504194925 75 239 1.7 2.6 0.00 0.00 0.00 52 1009.7
20260504194421 76 5 0.9 1.7 0.00 0.00 0.00 54 1009.7
20260504193917 75 190 1.7 2.6 0.00 0.00 0.00 53 1009.6
20260504193414 76 351 0.0 1.7 0.00 0.00 0.00 51 1009.7
20260504192913 75 35 0.0 1.7 0.00 0.00 0.00 58 1009.7
20260504192410 74 307 0.9 2.6 0.00 0.00 0.00 55 1009.6
20260504191909 75 8 0.0 2.6 0.00 0.00 0.00 58 1009.7
20260504191406 73 7 0.9 1.7 0.00 0.00 0.00 59 1009.6
20260504190901 74 194 1.7 2.6 0.00 0.00 0.00 58 1009.6
20260504190357 73 234 1.7 1.7 0.00 0.00 0.00 56 1009.7
20260504185854 72 80 0.9 1.7 0.00 0.00 0.00 59 1009.9
20260504185351 73 217 0.9 3.5 0.00 0.00 0.00 58 1009.9
20260504184847 72 225 0.9 0.9 0.00 0.00 0.00 63 1009.9
20260504184343 71 327 0.9 1.7 0.00 0.00 0.00 62 1009.9
20260504183839 71 63 0.0 1.7 0.00 0.00 0.00 63 1009.8
20260504183337 71 115 0.9 1.7 0.00 0.00 0.00 65 1009.9
20260504182834 72 359 0.9 1.7 0.00 0.00 0.00 62 1009.9
20260504182332 71 351 0.0 0.9 0.00 0.00 0.00 62 1009.8
20260504181828 72 217 1.7 2.6 0.00 0.00 0.00 59 1009.8
20260504181326 72 38 0.0 0.9 0.00 0.00 0.00 58 1010.1
20260504180825 72 5 0.0 1.7 0.00 0.00 0.00 56 1009.8
20260504180323 72 254 0.9 1.7 0.00 0.00 0.00 58 1010.0
20260504175820 72 58 0.0 0.9 0.00 0.00 0.00 56 1010.0
20260504175317 69 343 0.0 1.7 0.00 0.00 0.00 59 1009.7
20260504174815 70 175 1.7 2.6 0.00 0.00 0.00 61 1009.9
20260504174312 70 145 0.9 0.9 0.00 0.00 0.00 59 1010.0
20260504173809 69 280 1.7 1.7 0.00 0.00 0.00 58 1010.0
20260504173306 71 330 0.0 0.9 0.00 0.00 0.00 60 1009.9
20260504172803 70 89 0.9 1.7 0.00 0.00 0.00 65 1010.0
20260504172259 70 204 0.9 2.6 0.00 0.00 0.00 67 1009.9
20260504171755 70 188 1.7 2.6 0.00 0.00 0.00 67 1009.9
20260504171253 70 341 0.9 0.9 0.00 0.00 0.00 67 1009.9
20260504170750 69 243 0.9 1.7 0.00 0.00 0.00 65 1010.0
20260504170247 70 43 0.0 1.7 0.00 0.00 0.00 64 1010.0
20260504160205 65 327 0.9 1.7 0.00 0.00 0.00 76 1010.1
20260504151133 61 117 0.0 0.9 0.00 0.00 0.00 78 1009.8
20260504150630 61 66 0.0 0.0 0.00 0.00 0.00 76 1009.7
20260504150127 59 65 0.0 0.0 0.00 0.00 0.00 78 1009.8
20260504141056 54 63 0.0 0.0 0.00 0.00 0.00 86 1009.2
20260504140552 52 63 0.0 0.0 0.00 0.00 0.00 90 1009.3
20260504130511 52 47 0.0 0.0 0.00 0.00 0.00 91 1008.6
20260504110358 54 53 0.9 2.6 0.00 0.00 0.00 84 1008.6
20260504100315 54 59 0.9 1.7 0.00 0.00 0.00 82 1008.8
20260504081709 54 40 0.9 1.7 0.00 0.00 0.00 79 1008.7
20260504081205 54 54 0.9 0.9 0.00 0.00 0.00 81 1008.7
20260504080701 54 60 0.9 1.7 0.00 0.00 0.00 78 1008.5
20260504080158 55 60 0.0 1.7 0.00 0.00 0.00 79 1008.5
20260504070126 55 55 0.0 0.9 0.00 0.00 0.00 79 1008.6
20260504050514 60 355 0.0 0.9 0.00 0.00 0.00 72 1008.5
20260504050012 60 355 0.0 0.9 0.00 0.00 0.00 71 1008.8
20260504045508 60 355 0.0 0.9 0.00 0.00 0.00 70 1008.6
20260504045003 60 355 0.0 0.0 0.00 0.00 0.00 71 1008.6
20260504044501 60 355 0.0 0.0 0.00 0.00 0.00 72 1008.7
20260504043958 61 355 0.9 0.9 0.00 0.00 0.00 71 1008.8
20260504043455 61 355 0.0 0.0 0.00 0.00 0.00 70 1008.8
20260504042953 61 355 0.0 0.9 0.00 0.00 0.00 70 1008.8
20260504042449 61 355 0.0 0.0 0.00 0.00 0.00 70 1008.6
20260504041946 62 355 0.0 0.0 0.00 0.00 0.00 69 1008.7
20260504041442 62 355 0.0 0.0 0.00 0.00 0.00 70 1008.6
20260504040938 62 355 0.0 0.0 0.00 0.00 0.00 68 1008.7
20260504040436 63 355 0.0 0.0 0.00 0.00 0.00 67 1008.6